Overview Statistics Trail Chart Weather Telemetry Raw packets
 

This is the latest recevied weather packets stored in our database for station/object SV3AQT-13. If no packets are shown the sender has not sent any weather packets the latest 10 day(s).

<< 22 23 24 25 26 27 28 >>
Time Temp. Humidity Pressure Rain* Wind** Luminosity Snow
1788506562 29.44° C 66% 1017.2 hPa 0 mm 0.45 m/s, 68° - -
1788506382 30° C 65% 1017.2 hPa 0 mm 0 m/s - -
1788506203 30° C 63% 1017.2 hPa 0 mm 0 m/s - -
1788506024 30° C 65% 1017.2 hPa 0 mm 0 m/s - -
1788505843 30° C 64% 1017.2 hPa 0 mm 0 m/s - -
1788505663 29.44° C 63% 1017.2 hPa 0 mm 0 m/s - -
1788505482 29.44° C 63% 1017.2 hPa 0 mm 0.45 m/s, 86° - -
1788505303 29.44° C 63% 1017.2 hPa 0 mm 0 m/s - -
1788505138 29.44° C 63% 1017.2 hPa 0 mm 0 m/s - -
1788504942 28.89° C 64% 1017.2 hPa 0 mm 0.45 m/s, 73° - -
1788504762 29.44° C 62% 1017.2 hPa 0 mm 0 m/s - -
1788504583 29.44° C 63% 1017.2 hPa 0 mm 0 m/s - -
1788504402 28.89° C 65% 1017.2 hPa 0 mm 0.45 m/s, 89° - -
1788504223 28.89° C 63% 1017.2 hPa 0 mm 0.45 m/s, 80° - -
1788504042 28.89° C 65% 1017.2 hPa 0 mm 0.89 m/s, 82° - -
1788503863 28.89° C 63% 1017.2 hPa 0 mm 0.45 m/s, 81° - -
1788503682 28.89° C 64% 1017.2 hPa 0 mm 0 m/s - -
1788503502 28.89° C 62% 1017.2 hPa 0 mm 0.89 m/s, 79° - -
1788503323 28.89° C 63% 1017.2 hPa 0 mm 0.45 m/s, 78° - -
1788503143 28.89° C 64% 1017.2 hPa 0 mm 0 m/s - -
1788502962 28.33° C 64% 1017.2 hPa 0 mm 0.89 m/s, 81° - -
1788502783 28.33° C 64% 1017.2 hPa 0 mm 0.89 m/s, 71° - -
1788502602 28.33° C 64% 1017.2 hPa 0 mm 0.89 m/s, 70° - -
1788502422 28.33° C 66% 1017.2 hPa 0 mm 0.45 m/s, 78° - -
1788502242 28.33° C 66% 1017.2 hPa 0 mm 0.45 m/s, 84° - -

* Rain latest hour (hover to see other rain measurements)
** Current wind speed in m/s (hover to see current wind gust speed)